Date,TemperatureHighF,TemperatureAvgF,TemperatureLowF,DewpointHighF,DewpointAvgF,DewpointLowF,HumidityHigh,HumidityAvg,HumidityLow,PressureMaxIn,PressureMinIn,WindSpeedMaxMPH,WindSpeedAvgMPH,GustSpeedMaxMPH,PrecipitationSumIn
2013-1-1,38,35,26,-100,-100,-100,0,0,100,0.00,40.00,0,-999,0,0.00
2013-1-2,32,26,18,-100,-100,-100,0,0,100,0.00,40.00,0,-999,0,0.00
2013-1-3,34,27,18,-100,-100,-100,0,0,100,0.00,40.00,0,-999,0,0.00
2013-1-4,38,33,27,-100,-100,-100,0,0,100,0.00,40.00,0,-999,0,0.00
2013-1-5,43,34,25,-100,-100,-100,0,0,100,0.00,40.00,0,-999,0,0.00
2013-1-6,48,35,28,-100,-100,-100,0,0,100,0.00,40.00,0,-999,0,0.00
2013-1-7,47,33,25,-100,-100,-100,0,0,100,0.00,40.00,0,-999,0,0.00
2013-1-8,48,32,20,-100,-100,-100,0,0,100,0.00,40.00,0,-999,0,0.00
2013-1-9,45,33,23,-100,-100,-100,0,0,100,0.00,40.00,0,-999,0,0.00
2013-1-10,48,40,29,-100,-100,-100,0,0,100,0.00,40.00,0,-999,0,0.00
2013-1-11,40,35,27,-100,-100,-100,0,0,100,0.00,40.00,0,-999,0,0.00
2013-1-12,47,43,39,-100,-100,-100,0,0,100,0.00,40.00,0,-999,0,0.00
2013-1-13,47,45,43,-100,-100,-100,0,0,100,0.00,40.00,0,-999,0,0.00
2013-1-14,56,48,39,-100,-100,-100,0,0,100,0.00,40.00,0,-999,0,0.00
2013-1-15,38,36,34,-100,-100,-100,0,0,100,0.00,40.00,0,-999,0,0.00
2013-1-16,34,32,31,-100,-100,-100,0,0,100,0.00,40.00,0,-999,0,0.00
2013-1-17,43,36,31,-100,-100,-100,0,0,100,0.00,40.00,0,-999,0,0.00
2013-1-18,32,26,19,-100,-100,-100,0,0,100,0.00,40.00,0,-999,0,0.00
2013-1-19,47,34,20,-100,-100,-100,0,0,100,0.00,40.00,0,-999,0,0.00
2013-1-20,52,39,29,-100,-100,-100,0,0,100,0.00,40.00,0,-999,0,0.00
2013-1-21,30,27,21,-100,-100,-100,0,0,100,0.00,40.00,0,-999,0,0.00
2013-1-22,24,19,13,-100,-100,-100,0,0,100,0.00,40.00,0,-999,0,0.00
2013-1-23,21,14,7,-100,-100,-100,0,0,100,0.00,40.00,0,-999,0,0.00
2013-1-24,23,14,5,-100,-100,-100,0,0,100,0.00,40.00,0,-999,0,0.00
2013-1-25,23,17,12,-100,-100,-100,0,0,100,0.00,40.00,0,-999,0,0.00
2013-1-26,29,17,7,-100,-100,-100,0,0,100,0.00,40.00,0,-999,0,0.00
2013-1-27,34,22,14,-100,-100,-100,0,0,100,0.00,40.00,0,-999,0,0.00
2013-1-28,33,28,19,-100,-100,-100,0,0,100,0.00,40.00,0,-999,0,0.00
2013-1-29,53,38,32,-100,-100,-100,0,0,100,0.00,40.00,0,-999,0,0.00
2013-1-30,48,42,36,-100,-100,-100,0,0,100,0.00,40.00,0,-999,0,0.00
2013-1-31,47,39,29,-100,-100,-100,0,0,100,0.00,40.00,0,-999,0,0.00
2013-2-1,33,27,23,-100,-100,-100,0,0,100,0.00,40.00,0,-999,0,0.00
2013-2-2,29,23,18,-100,-100,-100,0,0,100,0.00,40.00,0,-999,0,0.00
2013-2-3,31,24,15,-100,-100,-100,0,0,100,0.00,40.00,0,-999,0,0.00
2013-2-4,33,26,21,-100,-100,-100,0,0,100,0.00,40.00,0,-999,0,0.00
2013-2-5,30,27,25,-100,-100,-100,0,0,100,0.00,40.00,0,-999,0,0.00
2013-2-6,40,32,23,-100,-100,-100,0,0,100,0.00,40.00,0,-999,0,0.00
2013-2-7,31,25,19,-100,-100,-100,0,0,100,0.00,40.00,0,-999,0,0.00
2013-2-8,33,31,26,-100,-100,-100,0,0,100,0.00,40.00,0,-999,0,0.00
2013-2-9,32,27,20,-100,-100,-100,0,0,100,0.00,40.00,0,-999,0,0.00
2013-2-10,40,23,6,-100,-100,-100,0,0,100,0.00,40.00,0,-999,0,0.00
2013-2-11,40,33,25,-100,-100,-100,0,0,100,0.00,40.00,0,-999,0,0.00
2013-2-12,45,38,30,-100,-100,-100,0,0,100,0.00,40.00,0,-999,0,0.00
2013-2-13,45,34,22,-100,-100,-100,0,0,100,0.00,40.00,0,-999,0,0.00
2013-2-14,45,35,27,-100,-100,-100,0,0,100,0.00,40.00,0,-999,0,0.00
2013-2-15,54,39,26,-100,-100,-100,0,0,100,0.00,40.00,0,-999,0,0.00
2013-2-16,41,35,30,-100,-100,-100,0,0,100,0.00,40.00,0,-999,0,0.00
2013-2-17,32,26,16,-100,-100,-100,0,0,100,0.00,40.00,0,-999,0,0.00
2013-2-18,36,24,16,-100,-100,-100,0,0,100,0.00,40.00,0,-999,0,0.00
2013-2-19,44,33,20,-100,-100,-100,0,0,100,0.00,40.00,0,-999,0,0.00
2013-2-20,36,31,25,-100,-100,-100,0,0,100,0.00,40.00,0,-999,0,0.00
2013-2-21,36,28,23,-100,-100,-100,0,0,100,0.00,40.00,0,-999,0,0.00
2013-2-22,37,30,22,-100,-100,-100,0,0,100,0.00,40.00,0,-999,0,0.00
2013-2-23,40,36,33,-100,-100,-100,0,0,100,0.00,40.00,0,-999,0,0.00
2013-2-24,45,38,33,-100,-100,-100,0,0,100,0.00,40.00,0,-999,0,0.00
2013-2-25,47,37,27,-100,-100,-100,0,0,100,0.00,40.00,0,-999,0,0.00
2013-2-26,42,36,27,-100,-100,-100,0,0,100,0.00,40.00,0,-999,0,0.00
2013-2-27,45,40,34,-100,-100,-100,0,0,100,0.00,40.00,0,-999,0,0.00
2013-2-28,51,41,34,-100,-100,-100,0,0,100,0.00,40.00,0,-999,0,0.00
2013-3-1,46,38,30,-100,-100,-100,0,0,100,0.00,40.00,0,-999,0,0.00
2013-3-2,40,35,31,-100,-100,-100,0,0,100,0.00,40.00,0,-999,0,0.00
2013-3-3,41,32,28,-100,-100,-100,0,0,100,0.00,40.00,0,-999,0,0.00
2013-3-4,42,33,27,-100,-100,-100,0,0,100,0.00,40.00,0,-999,0,0.00
2013-3-5,50,37,30,-100,-100,-100,0,0,100,0.00,40.00,0,-999,0,0.00
2013-3-6,41,38,32,-100,-100,-100,0,0,100,0.00,40.00,0,-999,0,0.00
2013-3-7,38,36,33,-100,-100,-100,0,0,100,0.00,40.00,0,-999,0,0.00
2013-3-8,41,35,31,-100,-100,-100,0,0,100,0.00,40.00,0,-999,0,0.00
2013-3-9,55,41,30,-100,-100,-100,0,0,100,0.00,40.00,0,-999,0,0.00
2013-3-10,50,38,26,-100,-100,-100,0,0,100,0.00,40.00,0,-999,0,0.00
2013-3-11,54,45,38,-100,-100,-100,0,0,100,0.00,40.00,0,-999,0,0.00
2013-3-12,54,50,42,-100,-100,-100,0,0,100,0.00,40.00,0,-999,0,0.00
2013-3-13,50,41,32,-100,-100,-100,0,0,100,0.00,40.00,0,-999,0,0.00
2013-3-14,41,34,28,-100,-100,-100,0,0,100,0.00,40.00,0,-999,0,0.00
2013-3-15,44,37,28,-100,-100,-100,0,0,100,0.00,40.00,0,-999,0,0.00
2013-3-16,39,34,31,-100,-100,-100,0,0,100,0.00,40.00,0,-999,0,0.00
2013-3-17,38,32,27,-100,-100,-100,0,0,100,0.00,40.00,0,-999,0,0.00
2013-3-18,34,28,22,-100,-100,-100,0,0,100,0.00,40.00,0,-999,0,0.00
2013-3-19,43,36,31,-100,-100,-100,0,0,100,0.00,40.00,0,-999,0,0.00
2013-3-20,44,36,26,-100,-100,-100,0,0,100,0.00,40.00,0,-999,0,0.00
2013-3-21,41,34,30,-100,-100,-100,0,0,100,0.00,40.00,0,-999,0,0.00
2013-3-22,40,34,27,-100,-100,-100,0,0,100,0.00,40.00,0,-999,0,0.00
2013-3-23,47,38,31,-100,-100,-100,0,0,100,0.00,40.00,0,-999,0,0.00
2013-3-24,47,39,26,-100,-100,-100,0,0,100,0.00,40.00,0,-999,0,0.00
2013-3-25,43,39,36,-100,-100,-100,0,0,100,0.00,40.00,0,-999,0,0.00
2013-3-26,53,40,30,-100,-100,-100,0,0,100,0.00,40.00,0,-999,0,0.00
2013-3-27,55,42,29,-100,-100,-100,0,0,100,0.00,40.00,0,-999,0,0.00
2013-3-28,51,43,36,-100,-100,-100,0,0,100,0.00,40.00,0,-999,0,0.00
2013-3-29,54,46,40,-100,-100,-100,0,0,100,0.00,40.00,0,-999,0,0.00
2013-3-30,62,44,29,-100,-100,-100,0,0,100,0.00,40.00,0,-999,0,0.00
2013-3-31,55,42,29,-100,-100,-100,0,0,100,0.00,40.00,0,-999,0,0.00
2013-4-1,63,47,37,-100,-100,-100,0,0,100,0.00,40.00,0,-999,0,0.00
2013-4-2,45,38,28,-100,-100,-100,0,0,100,0.00,40.00,0,-999,0,0.00
2013-4-3,47,38,31,-100,-100,-100,0,0,100,0.00,40.00,0,-999,0,0.00
2013-4-4,54,42,26,-100,-100,-100,0,0,100,0.00,40.00,0,-999,0,0.00
2013-4-5,63,48,38,-100,-100,-100,0,0,100,0.00,40.00,0,-999,0,0.00
2013-4-6,54,43,33,-100,-100,-100,0,0,100,0.00,40.00,0,-999,0,0.00
2013-4-7,57,46,33,-100,-100,-100,0,0,100,0.00,40.00,0,-999,0,0.00
2013-4-8,62,47,38,-100,-100,-100,0,0,100,0.00,40.00,0,-999,0,0.00
2013-4-9,82,64,49,-100,-100,-100,0,0,100,0.00,40.00,0,-999,0,0.00
2013-4-10,72,62,52,-100,-100,-100,0,0,100,0.00,40.00,0,-999,0,0.00
2013-4-11,63,55,46,-100,-100,-100,0,0,100,0.00,40.00,0,-999,0,0.00
2013-4-12,46,43,40,-100,-100,-100,0,0,100,0.00,40.00,0,-999,0,0.00
2013-4-13,58,48,39,-100,-100,-100,0,0,100,0.00,40.00,0,-999,0,0.00
2013-4-14,58,50,42,-100,-100,-100,0,0,100,0.00,40.00,0,-999,0,0.00
2013-4-15,59,49,38,-100,-100,-100,0,0,100,0.00,40.00,0,-999,0,0.00
2013-4-16,64,55,46,-100,-100,-100,0,0,100,0.00,40.00,0,-999,0,0.00
2013-4-17,69,61,50,-100,-100,-100,0,0,100,0.00,40.00,0,-999,0,0.00
2013-4-18,60,52,42,-100,-100,-100,0,0,100,0.00,40.00,0,-999,0,0.00
2013-4-19,74,64,55,-100,-100,-100,0,0,100,0.00,40.00,0,-999,0,0.00
2013-4-20,60,53,46,-100,-100,-100,0,0,100,0.00,40.00,0,-999,0,0.00
2013-4-21,54,44,33,-100,-100,-100,0,0,100,0.00,40.00,0,-999,0,0.00
2013-4-22,55,45,34,-100,-100,-100,0,0,100,0.00,40.00,0,-999,0,0.00
2013-4-23,53,44,38,-100,-100,-100,0,0,100,0.00,40.00,0,-999,0,0.00
2013-4-24,71,53,33,-100,-100,-100,0,0,100,0.00,40.00,0,-999,0,0.00
2013-4-25,66,55,44,-100,-100,-100,0,0,100,0.00,40.00,0,-999,0,0.00
2013-4-26,68,52,35,-100,-100,-100,0,0,100,0.00,40.00,0,-999,0,0.00
2013-4-27,71,55,37,-100,-100,-100,0,0,100,0.00,40.00,0,-999,0,0.00
2013-4-28,69,55,38,-100,-100,-100,0,0,100,0.00,40.00,0,-999,0,0.00
2013-4-29,56,53,51,-100,-100,-100,0,0,100,0.00,40.00,0,-999,0,0.00
2013-4-30,67,59,46,-100,-100,-100,0,0,100,0.00,40.00,0,-999,0,0.00
2013-5-1,69,54,36,-100,-100,-100,0,0,100,0.00,40.00,0,-999,0,0.00
2013-5-2,76,58,38,-100,-100,-100,0,0,100,0.00,40.00,0,-999,0,0.00
2013-5-3,67,56,47,-100,-100,-100,0,0,100,0.00,40.00,0,-999,0,0.00
2013-5-4,72,54,40,-100,-100,-100,0,0,100,0.00,40.00,0,-999,0,0.00
2013-5-5,65,51,39,-100,-100,-100,0,0,100,0.00,40.00,0,-999,0,0.00
2013-5-6,71,54,39,-100,-100,-100,0,0,100,0.00,40.00,0,-999,0,0.00
2013-5-7,73,59,44,-100,-100,-100,0,0,100,0.00,40.00,0,-999,0,0.00
2013-5-8,66,61,54,-100,-100,-100,0,0,100,0.00,40.00,0,-999,0,0.00
2013-5-9,69,59,50,-100,-100,-100,0,0,100,0.00,40.00,0,-999,0,0.00
2013-5-10,80,64,48,-100,-100,-100,0,0,100,0.00,40.00,0,-999,0,0.00
2013-5-11,69,64,60,-100,-100,-100,0,0,100,0.00,40.00,0,-999,0,0.00
2013-5-12,68,62,53,-100,-100,-100,0,0,100,0.00,40.00,0,-999,0,0.00
2013-5-13,56,47,37,-100,-100,-100,0,0,100,0.00,40.00,0,-999,0,0.00
2013-5-14,61,47,35,-100,-100,-100,0,0,100,0.00,40.00,0,-999,0,0.00
2013-5-15,68,50,37,-100,-100,-100,0,0,100,0.00,40.00,0,-999,0,0.00
2013-5-16,83,61,47,-100,-100,-100,0,0,100,0.00,40.00,0,-999,0,0.00
2013-5-17,73,62,52,-100,-100,-100,0,0,100,0.00,40.00,0,-999,0,0.00
2013-5-18,67,58,45,-100,-100,-100,0,0,100,0.00,40.00,0,-999,0,0.00
2013-5-19,59,57,55,-100,-100,-100,0,0,100,0.00,40.00,0,-999,0,0.00
2013-5-20,79,67,57,-100,-100,-100,0,0,100,0.00,40.00,0,-999,0,0.00
2013-5-21,87,78,58,-100,-100,-100,0,0,100,0.00,40.00,0,-999,0,0.00
2013-5-22,81,73,67,-100,-100,-100,0,0,100,0.00,40.00,0,-999,0,0.00
2013-5-23,75,68,64,-100,-100,-100,0,0,100,0.00,40.00,0,-999,0,0.00
2013-5-24,66,56,45,-100,-100,-100,0,0,100,0.00,40.00,0,-999,0,0.00
2013-5-25,53,49,44,-100,-100,-100,0,0,100,0.00,40.00,0,-999,0,0.00
2013-5-26,68,56,46,-100,-100,-100,0,0,100,0.00,40.00,0,-999,0,0.00
2013-5-27,76,58,38,-100,-100,-100,0,0,100,0.00,40.00,0,-999,0,0.00
2013-5-28,66,56,47,-100,-100,-100,0,0,100,0.00,40.00,0,-999,0,0.00
2013-5-29,82,68,58,-100,-100,-100,0,0,100,0.00,40.00,0,-999,0,0.00
2013-5-30,80,66,61,-100,-100,-100,0,0,100,0.00,40.00,0,-999,0,0.00
2013-5-31,91,83,68,-100,-100,-100,0,0,100,0.00,40.00,0,-999,0,0.00
2013-6-1,90,76,61,-100,-100,-100,0,0,100,0.00,40.00,0,-999,0,0.00
2013-6-2,86,77,67,-100,-100,-100,0,0,100,0.00,40.00,0,-999,0,0.00
2013-6-3,78,72,67,-100,-100,-100,0,0,100,0.00,40.00,0,-999,0,0.00
2013-6-4,76,64,55,-100,-100,-100,0,0,100,0.00,40.00,0,-999,0,0.00
2013-6-5,75,63,46,-100,-100,-100,0,0,100,0.00,40.00,0,-999,0,0.00
2013-6-6,70,60,50,-100,-100,-100,0,0,100,0.00,40.00,0,-999,0,0.00
2013-6-7,62,60,59,-100,-100,-100,0,0,100,0.00,40.00,0,-999,0,0.00
2013-6-8,77,66,57,-100,-100,-100,0,0,100,0.00,40.00,0,-999,0,0.00
2013-6-9,82,69,55,-100,-100,-100,0,0,100,0.00,40.00,0,-999,0,0.00
2013-6-10,70,64,60,-100,-100,-100,0,0,100,0.00,40.00,0,-999,0,0.00
2013-6-11,79,70,62,-100,-100,-100,0,0,100,0.00,40.00,0,-999,0,0.00
2013-6-12,76,69,58,-100,-100,-100,0,0,100,0.00,40.00,0,-999,0,0.00
2013-6-13,63,59,55,-100,-100,-100,0,0,100,0.00,40.00,0,-999,0,0.00
2013-6-14,76,62,52,-100,-100,-100,0,0,100,0.00,40.00,0,-999,0,0.00
2013-6-15,82,69,55,-100,-100,-100,0,0,100,0.00,40.00,0,-999,0,0.00
2013-6-16,79,65,53,-100,-100,-100,0,0,100,0.00,40.00,0,-999,0,0.00
2013-6-17,86,73,59,-100,-100,-100,0,0,100,0.00,40.00,0,-999,0,0.00
2013-6-18,83,69,60,-100,-100,-100,0,0,100,0.00,40.00,0,-999,0,0.00
2013-6-19,79,66,56,-100,-100,-100,0,0,100,0.00,40.00,0,-999,0,0.00
2013-6-20,80,65,52,-100,-100,-100,0,0,100,0.00,40.00,0,-999,0,0.00
2013-6-22,84,77,65,-100,-100,-100,0,0,100,0.00,40.00,0,-999,0,0.00
2013-6-23,88,75,60,-100,-100,-100,0,0,100,0.00,40.00,0,-999,0,0.00
2013-6-24,92,80,70,-100,-100,-100,0,0,100,0.00,40.00,0,-999,0,0.00
2013-6-25,91,78,66,-100,-100,-100,0,0,100,0.00,40.00,0,-999,0,0.00
2013-6-26,82,76,70,-100,-100,-100,0,0,100,0.00,40.00,0,-999,0,0.00
2013-6-27,85,76,67,-100,-100,-100,0,0,100,0.00,40.00,0,-999,0,0.00
2013-6-28,85,77,72,-100,-100,-100,0,0,100,0.00,40.00,0,-999,0,0.00
2013-6-29,83,74,67,-100,-100,-100,0,0,100,0.00,40.00,0,-999,0,0.00
2013-6-30,83,74,65,-100,-100,-100,0,0,100,0.00,40.00,0,-999,0,0.00
2013-7-1,76,74,73,-100,-100,-100,0,0,100,0.00,40.00,0,-999,0,0.00
2013-7-2,81,76,72,-100,-100,-100,0,0,100,0.00,40.00,0,-999,0,0.00
2013-7-3,84,77,71,-100,-100,-100,0,0,100,0.00,40.00,0,-999,0,0.00
2013-7-4,89,80,70,-100,-100,-100,0,0,100,0.00,40.00,0,-999,0,0.00
2013-7-5,91,81,70,-100,-100,-100,0,0,100,0.00,40.00,0,-999,0,0.00
2013-7-6,92,80,71,-100,-100,-100,0,0,100,0.00,40.00,0,-999,0,0.00
2013-7-7,93,82,72,-100,-100,-100,0,0,100,0.00,40.00,0,-999,0,0.00
2013-7-8,88,76,69,-100,-100,-100,0,0,100,0.00,40.00,0,-999,0,0.00
2013-7-9,89,79,67,-100,-100,-100,0,0,100,0.00,40.00,0,-999,0,0.00
2013-7-10,87,78,72,-100,-100,-100,0,0,100,0.00,40.00,0,-999,0,0.00
2013-7-11,86,76,69,-100,-100,-100,0,0,100,0.00,40.00,0,-999,0,0.00
2013-7-12,78,72,66,-100,-100,-100,0,0,100,0.00,40.00,0,-999,0,0.00
2013-7-13,79,72,66,-100,-100,-100,0,0,100,0.00,40.00,0,-999,0,0.00
2013-7-14,92,80,72,-100,-100,-100,0,0,100,0.00,40.00,0,-999,0,0.00
2013-7-15,96,82,73,-100,-100,-100,0,0,100,0.00,40.00,0,-999,0,0.00
2013-7-16,95,80,69,-100,-100,-100,0,0,100,0.00,40.00,0,-999,0,0.00
2013-7-17,98,80,70,-100,-100,-100,0,0,100,0.00,40.00,0,-999,0,0.00
2013-7-18,97,89,75,-100,-100,-100,0,0,100,0.00,40.00,0,-999,0,0.00
2013-7-19,96,85,74,-100,-100,-100,0,0,100,0.00,40.00,0,-999,0,0.00
2013-7-20,91,82,75,-100,-100,-100,0,0,100,0.00,40.00,0,-999,0,0.00
2013-7-21,88,79,71,-100,-100,-100,0,0,100,0.00,40.00,0,-999,0,0.00
2013-7-22,85,74,67,-100,-100,-100,0,0,100,0.00,40.00,0,-999,0,0.00
2013-7-23,86,76,72,-100,-100,-100,0,0,100,0.00,40.00,0,-999,0,0.00
2013-7-24,81,75,68,-100,-100,-100,0,0,100,0.00,40.00,0,-999,0,0.00
2013-7-25,68,65,62,-100,-100,-100,0,0,100,0.00,40.00,0,-999,0,0.00
2013-7-26,84,72,65,-100,-100,-100,0,0,100,0.00,40.00,0,-999,0,0.00
2013-7-27,83,71,58,-100,-100,-100,0,0,100,0.00,40.00,0,-999,0,0.00
2013-7-28,77,70,63,-100,-100,-100,0,0,100,0.00,40.00,0,-999,0,0.00
2013-7-29,83,73,64,-100,-100,-100,0,0,100,0.00,40.00,0,-999,0,0.00
2013-7-30,81,67,57,-100,-100,-100,0,0,100,0.00,40.00,0,-999,0,0.00
2013-7-31,80,69,56,-100,-100,-100,0,0,100,0.00,40.00,0,-999,0,0.00
2013-8-1,73,66,63,-100,-100,-100,0,0,100,0.00,40.00,0,-999,0,0.00
2013-8-2,82,72,62,-100,-100,-100,0,0,100,0.00,40.00,0,-999,0,0.00
2013-8-3,78,68,62,-100,-100,-100,0,0,100,0.00,40.00,0,-999,0,0.00
2013-8-4,81,69,58,-100,-100,-100,0,0,100,0.00,40.00,0,-999,0,0.00
2013-8-5,79,65,53,-100,-100,-100,0,0,100,0.00,40.00,0,-999,0,0.00
2013-8-6,80,67,53,-100,-100,-100,0,0,100,0.00,40.00,0,-999,0,0.00
2013-8-7,77,68,61,-100,-100,-100,0,0,100,0.00,40.00,0,-999,0,0.00
2013-8-8,83,73,69,-100,-100,-100,0,0,100,0.00,40.00,0,-999,0,0.00
2013-8-9,84,75,70,-100,-100,-100,0,0,100,0.00,40.00,0,-999,0,0.00
2013-8-10,84,73,63,-100,-100,-100,0,0,100,0.00,40.00,0,-999,0,0.00
2013-8-11,79,67,55,-100,-100,-100,0,0,100,0.00,40.00,0,-999,0,0.00
2013-8-12,86,72,65,-100,-100,-100,0,0,100,0.00,40.00,0,-999,0,0.00
2013-8-13,80,69,64,-100,-100,-100,0,0,100,0.00,40.00,0,-999,0,0.00
2013-8-14,74,65,56,-100,-100,-100,0,0,100,0.00,40.00,0,-999,0,0.00
2013-8-15,76,62,50,-100,-100,-100,0,0,100,0.00,40.00,0,-999,0,0.00
2013-8-16,81,66,53,-100,-100,-100,0,0,100,0.00,40.00,0,-999,0,0.00
2013-8-17,83,67,53,-100,-100,-100,0,0,100,0.00,40.00,0,-999,0,0.00
2013-8-18,76,67,59,-100,-100,-100,0,0,100,0.00,40.00,0,-999,0,0.00
2013-8-19,79,68,58,-100,-100,-100,0,0,100,0.00,40.00,0,-999,0,0.00
2013-8-20,87,72,58,-100,-100,-100,0,0,100,0.00,40.00,0,-999,0,0.00
2013-8-21,88,74,60,-100,-100,-100,0,0,100,0.00,40.00,0,-999,0,0.00
2013-8-22,76,69,64,-100,-100,-100,0,0,100,0.00,40.00,0,-999,0,0.00
2013-8-23,80,72,61,-100,-100,-100,0,0,100,0.00,40.00,0,-999,0,0.00
2013-8-24,80,66,53,-100,-100,-100,0,0,100,0.00,40.00,0,-999,0,0.00
2013-8-25,82,67,52,-100,-100,-100,0,0,100,0.00,40.00,0,-999,0,0.00
2013-8-26,78,69,61,-100,-100,-100,0,0,100,0.00,40.00,0,-999,0,0.00
2013-8-27,84,74,69,-100,-100,-100,0,0,100,0.00,40.00,0,-999,0,0.00
2013-8-28,81,74,70,-100,-100,-100,0,0,100,0.00,40.00,0,-999,0,0.00
2013-8-29,80,72,66,-100,-100,-100,0,0,100,0.00,40.00,0,-999,0,0.00
2013-8-30,85,74,67,-100,-100,-100,0,0,100,0.00,40.00,0,-999,0,0.00
2013-8-31,84,76,71,-100,-100,-100,0,0,100,0.00,40.00,0,-999,0,0.00
2013-9-1,83,75,70,-100,-100,-100,0,0,100,0.00,40.00,0,-999,0,0.00
2013-9-2,83,74,70,-100,-100,-100,0,0,100,0.00,40.00,0,-999,0,0.00
2013-9-3,82,72,62,-100,-100,-100,0,0,100,0.00,40.00,0,-999,0,0.00
2013-9-4,82,68,55,-100,-100,-100,0,0,100,0.00,40.00,0,-999,0,0.00
2013-9-5,76,65,53,-100,-100,-100,0,0,100,0.00,40.00,0,-999,0,0.00
2013-9-6,71,58,46,-100,-100,-100,0,0,100,0.00,40.00,0,-999,0,0.00
2013-9-7,78,62,45,-100,-100,-100,0,0,100,0.00,40.00,0,-999,0,0.00
2013-9-8,81,68,56,-100,-100,-100,0,0,100,0.00,40.00,0,-999,0,0.00
2013-9-9,72,59,46,-100,-100,-100,0,0,100,0.00,40.00,0,-999,0,0.00
2013-9-10,85,72,60,-100,-100,-100,0,0,100,0.00,40.00,0,-999,0,0.00
2013-9-11,94,80,67,-100,-100,-100,0,0,100,0.00,40.00,0,-999,0,0.00
2013-9-12,86,74,68,-100,-100,-100,0,0,100,0.00,40.00,0,-999,0,0.00
2013-9-13,74,67,58,-100,-100,-100,0,0,100,0.00,40.00,0,-999,0,0.00
2013-9-14,65,58,50,-100,-100,-100,0,0,100,0.00,40.00,0,-999,0,0.00
2013-9-15,72,54,42,-100,-100,-100,0,0,100,0.00,40.00,0,-999,0,0.00
2013-9-16,73,60,53,-100,-100,-100,0,0,100,0.00,40.00,0,-999,0,0.00
2013-9-17,66,54,43,-100,-100,-100,0,0,100,0.00,40.00,0,-999,0,0.00
2013-9-18,49,42,39,-100,-100,-100,0,0,100,0.00,40.00,0,-999,0,0.00
2013-9-19,77,57,41,-100,-100,-100,0,0,100,0.00,40.00,0,-999,0,0.00
2013-9-20,79,61,45,-100,-100,-100,0,0,100,0.00,40.00,0,-999,0,0.00
2013-9-21,76,62,49,-100,-100,-100,0,0,100,0.00,40.00,0,-999,0,0.00
2013-9-22,68,61,53,-100,-100,-100,0,0,100,0.00,40.00,0,-999,0,0.00
2013-9-23,65,54,42,-100,-100,-100,0,0,100,0.00,40.00,0,-999,0,0.00
2013-9-24,72,54,39,-100,-100,-100,0,0,100,0.00,40.00,0,-999,0,0.00
2013-9-25,72,55,41,-100,-100,-100,0,0,100,0.00,40.00,0,-999,0,0.00
2013-9-26,68,56,46,-100,-100,-100,0,0,100,0.00,40.00,0,-999,0,0.00
2013-9-27,67,57,45,-100,-100,-100,0,0,100,0.00,40.00,0,-999,0,0.00
2013-9-28,73,60,47,-100,-100,-100,0,0,100,0.00,40.00,0,-999,0,0.00
2013-9-29,72,57,46,-100,-100,-100,0,0,100,0.00,40.00,0,-999,0,0.00
2013-9-30,72,57,45,-100,-100,-100,0,0,100,0.00,40.00,0,-999,0,0.00
2013-10-1,66,61,57,-100,-100,-100,0,0,100,0.00,40.00,0,-999,0,0.00
2013-10-2,83,65,49,-100,-100,-100,0,0,100,0.00,40.00,0,-999,0,0.00
2013-10-3,77,63,50,-100,-100,-100,0,0,100,0.00,40.00,0,-999,0,0.00
2013-10-4,81,70,57,-100,-100,-100,0,0,100,0.00,40.00,0,-999,0,0.00
2013-10-5,76,68,64,-100,-100,-100,0,0,100,0.00,40.00,0,-999,0,0.00
2013-10-6,67,65,64,-100,-100,-100,0,0,100,0.00,40.00,0,-999,0,0.00
2013-10-7,74,66,57,-100,-100,-100,0,0,100,0.00,40.00,0,-999,0,0.00
2013-10-8,67,54,45,-100,-100,-100,0,0,100,0.00,40.00,0,-999,0,0.00
2013-10-9,62,52,44,-100,-100,-100,0,0,100,0.00,40.00,0,-999,0,0.00
2013-10-10,61,56,49,-100,-100,-100,0,0,100,0.00,40.00,0,-999,0,0.00
2013-10-11,67,63,58,-100,-100,-100,0,0,100,0.00,40.00,0,-999,0,0.00
2013-10-12,73,64,56,-100,-100,-100,0,0,100,0.00,40.00,0,-999,0,0.00
2013-10-13,67,57,48,-100,-100,-100,0,0,100,0.00,40.00,0,-999,0,0.00
2013-10-14,67,56,48,-100,-100,-100,0,0,100,0.00,40.00,0,-999,0,0.00
2013-10-15,72,56,44,-100,-100,-100,0,0,100,0.00,40.00,0,-999,0,0.00
2013-10-16,66,57,47,-100,-100,-100,0,0,100,0.00,40.00,0,-999,0,0.00
2013-10-17,75,65,60,-100,-100,-100,0,0,100,0.00,40.00,0,-999,0,0.00
2013-10-18,70,60,45,-100,-100,-100,0,0,100,0.00,40.00,0,-999,0,0.00
2013-10-19,65,51,38,-100,-100,-100,0,0,100,0.00,40.00,0,-999,0,0.00
2013-10-20,63,51,40,-100,-100,-100,0,0,100,0.00,40.00,0,-999,0,0.00
2013-10-21,67,49,34,-100,-100,-100,0,0,100,0.00,40.00,0,-999,0,0.00
2013-10-22,63,49,38,-100,-100,-100,0,0,100,0.00,40.00,0,-999,0,0.00
2013-10-23,55,44,34,-100,-100,-100,0,0,100,0.00,40.00,0,-999,0,0.00
2013-10-24,54,43,32,-100,-100,-100,0,0,100,0.00,40.00,0,-999,0,0.00
2013-10-25,52,39,28,-100,-100,-100,0,0,100,0.00,40.00,0,-999,0,0.00
2013-10-26,54,41,26,-100,-100,-100,0,0,100,0.00,40.00,0,-999,0,0.00
2013-10-27,59,47,35,-100,-100,-100,0,0,100,0.00,40.00,0,-999,0,0.00
2013-10-28,63,45,29,-100,-100,-100,0,0,100,0.00,40.00,0,-999,0,0.00
2013-10-29,55,44,37,-100,-100,-100,0,0,100,0.00,40.00,0,-999,0,0.00
2013-10-30,59,51,41,-100,-100,-100,0,0,100,0.00,40.00,0,-999,0,0.00
2013-10-31,64,53,39,-100,-100,-100,0,0,100,0.00,40.00,0,-999,0,0.00
2013-11-1,69,64,60,-100,-100,-100,0,0,100,0.00,40.00,0,-999,0,0.00
2013-11-2,67,59,51,-100,-100,-100,0,0,100,0.00,40.00,0,-999,0,0.00
2013-11-3,50,46,34,-100,-100,-100,0,0,100,0.00,40.00,0,-999,0,0.00
2013-11-4,37,32,27,-100,-100,-100,0,0,100,0.00,40.00,0,-999,0,0.00
2013-11-5,54,40,30,-100,-100,-100,0,0,100,0.00,40.00,0,-999,0,0.00
2013-11-6,60,48,39,-100,-100,-100,0,0,100,0.00,40.00,0,-999,0,0.00
2013-11-7,62,58,56,-100,-100,-100,0,0,100,0.00,40.00,0,-999,0,0.00
2013-11-8,52,42,30,-100,-100,-100,0,0,100,0.00,40.00,0,-999,0,0.00
2013-11-9,53,42,29,-100,-100,-100,0,0,100,0.00,40.00,0,-999,0,0.00
2013-11-10,56,47,40,-100,-100,-100,0,0,100,0.00,40.00,0,-999,0,0.00
2013-11-11,51,47,37,-100,-100,-100,0,0,100,0.00,40.00,0,-999,0,0.00
2013-11-12,50,37,30,-100,-100,-100,0,0,100,0.00,40.00,0,-999,0,0.00
2013-11-13,39,31,24,-100,-100,-100,0,0,100,0.00,40.00,0,-999,0,0.00
2013-11-14,51,38,21,-100,-100,-100,0,0,100,0.00,40.00,0,-999,0,0.00
2013-11-15,57,38,24,-100,-100,-100,0,0,100,0.00,40.00,0,-999,0,0.00
2013-11-16,62,44,30,-100,-100,-100,0,0,100,0.00,40.00,0,-999,0,0.00
2013-11-17,59,52,40,-100,-100,-100,0,0,100,0.00,40.00,0,-999,0,0.00
2013-11-18,64,58,52,-100,-100,-100,0,0,100,0.00,40.00,0,-999,0,0.00
2013-11-20,44,36,28,-100,-100,-100,0,0,100,0.00,40.00,0,-999,0,0.00
2013-11-21,52,47,28,-100,-100,-100,0,0,100,0.00,40.00,0,-999,0,0.00
2013-11-22,63,55,50,-100,-100,-100,0,0,100,0.00,40.00,0,-999,0,0.00
2013-11-23,57,45,34,-100,-100,-100,0,0,100,0.00,40.00,0,-999,0,0.00
2013-11-24,32,28,23,-100,-100,-100,0,0,100,0.00,40.00,0,-999,0,0.00
2013-11-25,35,28,19,-100,-100,-100,0,0,100,0.00,40.00,0,-999,0,0.00
2013-11-26,40,34,31,-100,-100,-100,0,0,100,0.00,40.00,0,-999,0,0.00
2013-11-27,59,45,33,-100,-100,-100,0,0,100,0.00,40.00,0,-999,0,0.00
2013-11-28,35,30,24,-100,-100,-100,0,0,100,0.00,40.00,0,-999,0,0.00
2013-11-29,38,30,24,-100,-100,-100,0,0,100,0.00,40.00,0,-999,0,0.00
2013-11-30,34,27,18,-100,-100,-100,0,0,100,0.00,40.00,0,-999,0,0.00
2013-12-1,47,38,29,-100,-100,-100,0,0,100,0.00,40.00,0,-999,0,0.00
2013-12-2,46,37,30,-100,-100,-100,0,0,100,0.00,40.00,0,-999,0,0.00
2013-12-3,53,36,27,-100,-100,-100,0,0,100,0.00,40.00,0,-999,0,0.00
2013-12-4,51,40,29,-100,-100,-100,0,0,100,0.00,40.00,0,-999,0,0.00
2013-12-5,52,49,44,-100,-100,-100,0,0,100,0.00,40.00,0,-999,0,0.00
2013-12-6,52,46,36,-100,-100,-100,0,0,100,0.00,40.00,0,-999,0,0.00
2013-12-7,41,35,30,-100,-100,-100,0,0,100,0.00,40.00,0,-999,0,0.00
2013-12-8,31,29,25,-100,-100,-100,0,0,100,0.00,40.00,0,-999,0,0.00
2013-12-9,37,32,29,-100,-100,-100,0,0,100,0.00,40.00,0,-999,0,0.00
2013-12-10,32,29,21,-100,-100,-100,0,0,100,0.00,40.00,0,-999,0,0.00
2013-12-11,32,24,16,-100,-100,-100,0,0,100,0.00,40.00,0,-999,0,0.00
2013-12-12,26,22,17,-100,-100,-100,0,0,100,0.00,40.00,0,-999,0,0.00
2013-12-13,35,25,14,-100,-100,-100,0,0,100,0.00,40.00,0,-999,0,0.00
2013-12-14,26,22,17,-100,-100,-100,0,0,100,0.00,40.00,0,-999,0,0.00
2013-12-15,36,31,25,-100,-100,-100,0,0,100,0.00,40.00,0,-999,0,0.00
2013-12-16,30,24,11,-100,-100,-100,0,0,100,0.00,40.00,0,-999,0,0.00
2013-12-17,25,20,10,-100,-100,-100,0,0,100,0.00,40.00,0,-999,0,0.00
2013-12-18,36,26,13,-100,-100,-100,0,0,100,0.00,40.00,0,-999,0,0.00
2013-12-19,45,37,31,-100,-100,-100,0,0,100,0.00,40.00,0,-999,0,0.00
2013-12-20,49,36,29,-100,-100,-100,0,0,100,0.00,40.00,0,-999,0,0.00
2013-12-21,57,51,33,-100,-100,-100,0,0,100,0.00,40.00,0,-999,0,0.00
2013-12-22,67,63,52,-100,-100,-100,0,0,100,0.00,40.00,0,-999,0,0.00
2013-12-23,57,49,40,-100,-100,-100,0,0,100,0.00,40.00,0,-999,0,0.00
2013-12-24,39,34,25,-100,-100,-100,0,0,100,0.00,40.00,0,-999,0,0.00
2013-12-25,29,23,17,-100,-100,-100,0,0,100,0.00,40.00,0,-999,0,0.00
2013-12-26,35,28,23,-100,-100,-100,0,0,100,0.00,40.00,0,-999,0,0.00
2013-12-27,38,31,18,-100,-100,-100,0,0,100,0.00,40.00,0,-999,0,0.00
2013-12-28,52,34,21,-100,-100,-100,0,0,100,0.00,40.00,0,-999,0,0.00
2013-12-29,41,36,29,-100,-100,-100,0,0,100,0.00,40.00,0,-999,0,0.00
2013-12-30,40,32,21,-100,-100,-100,0,0,100,0.00,40.00,0,-999,0,0.00
2013-12-31,30,24,18,-100,-100,-100,0,0,100,0.00,40.00,0,-999,0,0.00
2014-1-1,32,24,14,-100,-100,-100,0,0,100,0.00,40.00,0,-999,0,0.00
2014-1-2,29,22,13,-100,-100,-100,0,0,100,0.00,40.00,0,-999,0,0.00